Terminal Aerodrome Forecast
Issued by NWS

Home | Current Version | Previous Version | Text Only | Print | Product List | Glossary On
Versions: 1 2 3 4 5 6 7 8 9 10 11 12 13 14 15
000
FTUS46 KMTR 260500
TAFOAK
TAF
KOAK 260522Z 2606/2712 30007KT P6SM SKC
     FM261200 26004KT P6SM SCT007
      TEMPO 2613/2616 BKN006
     FM262100 30013KT P6SM SKC
     FM270400 30006KT P6SM SKC
     FM270800 31005KT P6SM BKN008=

USA.gov is the U.S. government's official web portal to all federal, state and local government web resources and services.